| time (UTC) | temp F | wind direction | speed MPH | gust MPH | rain 1hr in | rain 24hr in | rain mn in | humidity % | barometer mb |
| 20260510043034 | 55 | 195 | 2.0 | 5.0 | 0.15 | 0.52 | 0.02 | 96 | 1009.5 |
| 20260510041528 | 55 | 350 | 2.0 | 8.0 | 0.16 | 0.52 | 0.02 | 95 | 1009.7 |
| 20260510040030 | 55 | 174 | 5.0 | 8.0 | 0.16 | 0.50 | 0.00 | 95 | 1009.4 |
| 20260510034532 | 55 | 360 | 0.0 | 8.0 | 0.08 | 0.43 | 0.42 | 95 | 1009.9 |
| 20260510033029 | 55 | 172 | 5.0 | 8.0 | 0.03 | 0.38 | 0.37 | 95 | 1009.0 |
| 20260510031531 | 55 | 226 | 0.0 | 5.0 | 0.01 | 0.36 | 0.35 | 95 | 1009.7 |
| 20260510030029 | 55 | 188 | 4.0 | 8.0 | 0.00 | 0.35 | 0.34 | 95 | 1009.1 |
| 20260510024530 | 54 | 153 | 2.0 | 7.0 | 0.01 | 0.36 | 0.34 | 95 | 1009.2 |
| 20260510023028 | 54 | 168 | 3.0 | 6.0 | 0.07 | 0.36 | 0.34 | 95 | 1009.3 |
| 20260510021528 | 55 | 0 | 0.0 | 5.0 | 0.16 | 0.36 | 0.34 | 94 | 1009.3 |
| 20260510020028 | 55 | 203 | 3.0 | 4.0 | 0.29 | 0.36 | 0.34 | 93 | 1009.5 |
| 20260510014535 | 55 | 0 | 0.0 | 10.0 | 0.28 | 0.36 | 0.33 | 92 | 1009.4 |
| 20260510013028 | 55 | 40 | 6.0 | 17.0 | 0.21 | 0.29 | 0.26 | 90 | 1009.5 |
| 20260510011531 | 57 | 259 | 2.0 | 18.0 | 0.12 | 0.20 | 0.17 | 82 | 1008.9 |
| 20260510010030 | 64 | 33 | 4.0 | 14.0 | 0.00 | 0.08 | 0.05 | 63 | 1008.0 |
| 20260510004529 | 64 | 198 | 7.0 | 12.0 | 0.00 | 0.09 | 0.05 | 61 | 1006.6 |
| 20260510003038 | 65 | 227 | 8.0 | 14.0 | 0.00 | 0.09 | 0.05 | 60 | 1007.0 |
| 20260510001530 | 65 | 228 | 8.0 | 16.0 | 0.00 | 0.09 | 0.05 | 59 | 1006.8 |
| 20260510000030 | 66 | 222 | 9.0 | 18.0 | 0.00 | 0.09 | 0.05 | 58 | 1006.7 |
| 20260509234537 | 66 | 252 | 12.0 | 20.0 | 0.00 | 0.09 | 0.05 | 57 | 1006.6 |
| 20260509233032 | 67 | 224 | 12.0 | 19.0 | 0.00 | 0.09 | 0.05 | 56 | 1006.3 |
| 20260509231535 | 67 | 229 | 17.0 | 24.0 | 0.00 | 0.09 | 0.05 | 54 | 1006.1 |
| 20260509230030 | 67 | 244 | 16.0 | 24.0 | 0.00 | 0.09 | 0.05 | 54 | 1006.1 |
| 20260509224533 | 67 | 216 | 15.0 | 29.0 | 0.00 | 0.09 | 0.05 | 54 | 1006.5 |
| 20260509223031 | 68 | 213 | 10.0 | 24.0 | 0.00 | 0.09 | 0.05 | 54 | 1006.3 |
| 20260509221530 | 68 | 216 | 14.0 | 22.0 | 0.00 | 0.09 | 0.05 | 55 | 1006.4 |
| 20260509220030 | 67 | 237 | 16.0 | 29.0 | 0.00 | 0.09 | 0.05 | 55 | 1006.4 |
| 20260509214532 | 68 | 205 | 12.0 | 24.0 | 0.00 | 0.09 | 0.05 | 56 | 1006.6 |
| 20260509213030 | 68 | 240 | 12.0 | 19.0 | 0.00 | 0.09 | 0.05 | 57 | 1006.6 |
| 20260509211528 | 68 | 217 | 15.0 | 24.0 | 0.00 | 0.09 | 0.05 | 58 | 1006.7 |
| 20260509210030 | 68 | 218 | 12.0 | 20.0 | 0.00 | 0.09 | 0.05 | 56 | 1006.7 |
| 20260509204530 | 67 | 231 | 14.0 | 24.0 | 0.00 | 0.09 | 0.05 | 56 | 1006.9 |
| 20260509203039 | 67 | 238 | 11.0 | 18.0 | 0.00 | 0.09 | 0.05 | 57 | 1007.0 |
| 20260509201530 | 67 | 238 | 7.0 | 23.0 | 0.00 | 0.09 | 0.05 | 59 | 1007.3 |
| 20260509200029 | 66 | 224 | 17.0 | 24.0 | 0.00 | 0.09 | 0.05 | 58 | 1007.6 |
| 20260509194531 | 65 | 229 | 12.0 | 18.0 | 0.00 | 0.09 | 0.05 | 61 | 1007.9 |
| 20260509193037 | 65 | 243 | 14.0 | 22.0 | 0.00 | 0.09 | 0.05 | 62 | 1007.8 |
| 20260509191538 | 65 | 256 | 15.0 | 20.0 | 0.00 | 0.09 | 0.05 | 62 | 1008.1 |
| 20260509190029 | 65 | 248 | 10.0 | 21.0 | 0.00 | 0.09 | 0.05 | 65 | 1008.3 |
| 20260509184538 | 64 | 249 | 10.0 | 23.0 | 0.00 | 0.09 | 0.05 | 66 | 1008.4 |
| 20260509183032 | 63 | 269 | 12.0 | 20.0 | 0.00 | 0.09 | 0.05 | 67 | 1008.4 |
| 20260509181544 | 63 | 225 | 14.0 | 23.0 | 0.00 | 0.09 | 0.05 | 69 | 1008.3 |
| 20260509180032 | 61 | 221 | 15.0 | 23.0 | 0.00 | 0.09 | 0.05 | 72 | 1008.4 |
| 20260509174531 | 61 | 250 | 12.0 | 17.0 | 0.00 | 0.09 | 0.05 | 74 | 1008.7 |
| 20260509173029 | 61 | 257 | 12.0 | 17.0 | 0.00 | 0.09 | 0.05 | 76 | 1008.6 |
| 20260509171531 | 60 | 237 | 15.0 | 25.0 | 0.00 | 0.09 | 0.05 | 75 | 1008.8 |
| 20260509170042 | 60 | 257 | 11.0 | 20.0 | 0.00 | 0.09 | 0.05 | 77 | 1008.7 |
| 20260509164536 | 57 | 223 | 12.0 | 18.0 | 0.00 | 0.09 | 0.05 | 82 | 1008.6 |
| 20260509163033 | 58 | 245 | 8.0 | 18.0 | 0.00 | 0.09 | 0.05 | 82 | 1008.7 |
| 20260509161534 | 58 | 228 | 12.0 | 18.0 | 0.00 | 0.09 | 0.05 | 80 | 1008.7 |
| 20260509160036 | 57 | 273 | 7.0 | 16.0 | 0.00 | 0.09 | 0.05 | 81 | 1008.4 |
| 20260509154534 | 57 | 257 | 9.0 | 16.0 | 0.00 | 0.09 | 0.05 | 82 | 1008.2 |
| 20260509153038 | 58 | 235 | 12.0 | 18.0 | 0.00 | 0.09 | 0.05 | 83 | 1008.1 |
| 20260509151530 | 57 | 232 | 11.0 | 19.0 | 0.00 | 0.09 | 0.05 | 86 | 1008.1 |
| 20260509150031 | 56 | 279 | 11.0 | 18.0 | 0.00 | 0.09 | 0.05 | 88 | 1008.0 |
| 20260509144532 | 56 | 243 | 11.0 | 18.0 | 0.00 | 0.09 | 0.05 | 91 | 1008.1 |
| 20260509143033 | 54 | 243 | 6.0 | 15.0 | 0.00 | 0.09 | 0.05 | 94 | 1008.1 |
| 20260509141532 | 53 | 234 | 7.0 | 13.0 | 0.00 | 0.09 | 0.05 | 95 | 1008.2 |
| 20260509140032 | 52 | 247 | 4.0 | 13.0 | 0.00 | 0.09 | 0.05 | 94 | 1008.4 |
| 20260509134531 | 52 | 241 | 9.0 | 14.0 | 0.00 | 0.09 | 0.05 | 95 | 1008.6 |
| 20260509133029 | 52 | 238 | 9.0 | 14.0 | 0.01 | 0.09 | 0.05 | 95 | 1008.5 |
| 20260509131535 | 51 | 234 | 8.0 | 13.0 | 0.01 | 0.09 | 0.05 | 95 | 1008.6 |
| 20260509130032 | 51 | 207 | 8.0 | 13.0 | 0.01 | 0.09 | 0.05 | 95 | 1008.5 |
| 20260509124530 | 51 | 227 | 6.0 | 11.0 | 0.00 | 0.08 | 0.04 | 95 | 1008.5 |
| 20260509123029 | 51 | 239 | 6.0 | 10.0 | 0.00 | 0.08 | 0.04 | 95 | 1008.8 |
| 20260509121531 | 50 | 203 | 6.0 | 12.0 | 0.00 | 0.08 | 0.04 | 95 | 1008.8 |
| 20260509120038 | 50 | 217 | 7.0 | 12.0 | 0.00 | 0.08 | 0.04 | 95 | 1008.9 |
| 20260509114533 | 50 | 229 | 7.0 | 11.0 | 0.00 | 0.08 | 0.04 | 95 | 1008.9 |
| 20260509113032 | 50 | 223 | 7.0 | 12.0 | 0.00 | 0.08 | 0.04 | 95 | 1008.7 |
| 20260509111531 | 50 | 229 | 9.0 | 14.0 | 0.00 | 0.08 | 0.04 | 94 | 1008.5 |
| 20260509110035 | 50 | 200 | 7.0 | 12.0 | 0.01 | 0.08 | 0.04 | 94 | 1008.3 |
| 20260509104533 | 50 | 229 | 6.0 | 12.0 | 0.01 | 0.08 | 0.04 | 94 | 1008.3 |
| 20260509103034 | 50 | 211 | 5.0 | 12.0 | 0.01 | 0.08 | 0.04 | 94 | 1008.2 |
| 20260509101543 | 50 | 211 | 6.0 | 10.0 | 0.01 | 0.08 | 0.04 | 94 | 1008.3 |
| 20260509100030 | 50 | 210 | 6.0 | 11.0 | 0.00 | 0.07 | 0.03 | 94 | 1008.4 |
| 20260509094531 | 50 | 235 | 4.0 | 8.0 | 0.01 | 0.07 | 0.03 | 93 | 1008.6 |
| 20260509093030 | 50 | 199 | 5.0 | 9.0 | 0.01 | 0.07 | 0.03 | 94 | 1008.7 |
| 20260509091534 | 50 | 186 | 4.0 | 9.0 | 0.01 | 0.07 | 0.03 | 94 | 1008.6 |
| 20260509090030 | 50 | 196 | 2.0 | 5.0 | 0.01 | 0.07 | 0.03 | 94 | 1008.7 |
| 20260509084531 | 50 | 205 | 4.0 | 7.0 | 0.00 | 0.06 | 0.02 | 94 | 1009.1 |
| 20260509083033 | 50 | 190 | 2.0 | 5.0 | 0.00 | 0.06 | 0.02 | 95 | 1009.1 |
| 20260509081534 | 49 | 225 | 2.0 | 5.0 | 0.01 | 0.06 | 0.02 | 95 | 1009.2 |
| 20260509080033 | 49 | 165 | 4.0 | 6.0 | 0.01 | 0.06 | 0.02 | 95 | 1009.2 |
| 20260509074530 | 49 | 156 | 4.0 | 6.0 | 0.01 | 0.06 | 0.02 | 95 | 1009.4 |
| 20260509073049 | 49 | 172 | 1.0 | 6.0 | 0.01 | 0.06 | 0.02 | 95 | 1009.3 |
| 20260509071536 | 49 | 143 | 5.0 | 9.0 | 0.00 | 0.05 | 0.01 | 95 | 1009.2 |
| 20260509070029 | 49 | 119 | 2.0 | 6.0 | 0.00 | 0.05 | 0.01 | 95 | 1009.3 |
| 20260509064534 | 49 | 144 | 3.0 | 5.0 | 0.00 | 0.05 | 0.01 | 95 | 1009.4 |
| 20260509063031 | 49 | 144 | 1.0 | 3.0 | 0.01 | 0.05 | 0.01 | 95 | 1009.4 |
| 20260509061529 | 49 | 144 | 1.0 | 3.0 | 0.01 | 0.05 | 0.01 | 95 | 1009.4 |
| 20260509060037 | 49 | 0 | 0.0 | 0.0 | 0.01 | 0.05 | 0.01 | 95 | 1009.5 |
| 20260509054531 | 49 | 0 | 0.0 | 0.0 | 0.01 | 0.05 | 0.01 | 95 | 1009.7 |
| 20260509053033 | 49 | 0 | 0.0 | 1.0 | 0.00 | 0.04 | 0.00 | 95 | 1009.9 |
| 20260509051529 | 49 | 0 | 0.0 | 1.0 | 0.00 | 0.04 | 0.00 | 95 | 1009.9 |
| 20260509050031 | 49 | 0 | 0.0 | 1.0 | 0.00 | 0.04 | 0.00 | 95 | 1010.0 |
| 20260509044535 | 49 | 144 | 2.0 | 4.0 | 0.00 | 0.04 | 0.00 | 94 | 1010.0 |